Vertical_Velocity
1 1 1 -2 -4 1 -1 0 2 -0 4 -2 -1 -2 -4 -0 2 3 -1 -2 -0 -0 -2 0 -3 1 -5 -3 -1 -1 -0 -3 -1 0 -0 -0 -1 -0 -1 -1 -0 -0 -2 0 -1 -0 1 0 0
2 -0 -1 -1 -2 -0 1 0 -0 1 1 0 2 -0 -2 -3 -0 1 0 -1 0 2 -0 -0 -1 1 0 -1 -1 -1 -3 -1 -1 0 -2 -1 0 -0 -1 -0 -1 1 -0 -1 -0 1 -1 -0 1
-0 0 -1 -2 -3 -0 1 -2 -0 -2 1 -0 1 0 -1 -1 1 -0 1 0 -0 -0 1 -0 -1 0 0 0 -2 -1 -0 -1 -0 -1 -1 0 -1 -1 -1 0 0 -0 -0 -0 -0 -1 1 1 0
2 -2 -2 -6 -1 1 -1 -2 -1 -2 1 1 1 -2 -1 -2 0 -1 1 -1 -0 -0 -1 2 0 0 1 -0 -1 -0 -1 -0 -2 -1 -0 -1 -0 -0 1 -1 -1 -0 -0 -0 -0 1 -0 -1 -0
-1 1 -4 -3 1 1 0 1 0 -1 0 -0 1 -1 1 -1 -1 -1 1 0 -2 -1 -0 -2 0 -0 -1 0 2 -1 -0 1 1 -1 -0 -1 -0 -1 -1 -1 -1 -1 -1 -1 -2 -1 -0 -1 -1
-1 -2 -2 -1 1 2 1 1 -1 1 2 -2 -2 -1 -1 -1 -1 -2 0 1 -1 -1 -2 -0 0 0 -0 -0 1 0 0 0 1 2 -0 0 -0 -0 -1 -0 -1 -1 -1 -2 -2 -1 -1 0 -1
4 -2 -3 -0 -2 1 1 0 -2 -1 0 0 -0 -3 -0 0 1 -1 -0 1 1 1 0 -1 -2 -0 -1 0 -2 0 -2 -1 -1 -1 -1 -0 -0 1 1 -1 0 -1 -1 -0 -1 -2 -1 -1 0
2 -6 -4 -1 3 1 1 0 1 -1 -1 -1 1 -1 -2 1 -0 -2 -2 -2 -1 -1 -0 -0 1 1 3 -1 1 0 -1 -1 -0 0 -1 -1 -1 -1 -0 1 1 1 -2 -2 -1 1 -0 -0 1
-0 -5 -2 -2 4 3 2 -1 -1 -2 -1 -2 -1 0 -1 -2 -2 -3 -2 -1 1 -0 -1 -1 -0 0 -0 -0 0 -0 -1 0 -0 -1 -1 -0 -0 1 0 -1 -1 0 1 -1 -1 -1 -1 -1 0
-4 -2 1 1 5 -1 -1 -3 -1 -2 -3 -2 -1 -1 -1 -1 -3 -2 -1 -1 -1 -0 -1 -0 -0 -1 0 -1 -0 -1 -0 -0 -1 -0 -2 -1 -0 -0 -0 -0 -0 -0 -0 -0 1 -1 -0 -0 -1
1 -1 1 2 1 -2 -2 -1 -1 1 -3 -3 -0 -0 -1 -2 -2 -1 -2 0 -0 0 -1 0 -1 0 -1 -1 -1 -0 -0 -1 -1 -0 -1 -1 -0 -0 0 -1 -1 -1 -0 -0 0 -1 -1 -0 -0
-0 -2 2 1 0 -1 -2 -2 0 -1 0 -1 -0 0 -2 -2 -2 -2 0 -1 -1 -2 -1 -0 1 0 -0 -0 -1 -1 0 -1 -0 -0 2 1 1 -1 -0 -0 -2 -1 -1 -2 -0 -1 -1 0 0
1 -2 -0 -1 -0 -1 0 2 2 -4 3 -3 -1 -1 -1 -1 -2 2 -0 -1 3 2 2 0 -1 -2 -2 0 0 1 -1 -0 0 1 -1 -1 1 1 -1 2 -1 -0 -2 -1 -1 -0 0 -0 0
1 -0 0 1 1 -0 1 1 -0 -3 2 -1 -2 -1 -2 -1 4 -1 2 -0 1 -0 -3 -4 -3 -3 -3 -3 -3 -3 -0 -1 -1 -1 -1 -2 -0 1 -1 -0 0 1 -1 -1 0 0 0 1 1
0 -2 -0 0 -0 1 1 2 -5 4 -3 -2 -1 2 2 3 -2 -2 -3 -0 -0 -1 -0 -0 0 1 1 1 0 0 0 1 1 2 0 -1 -1 2 0 2 0 0 -1 0 2 3 3 2 -1
-1 -1 -1 1 -0 1 1 -2 1 -2 -1 -2 -2 0 3 2 1 0 -1 -1 1 -0 -0 -3 -2 -2 -2 -1 -1 -0 1 -1 1 1 1 1 -2 -1 -0 -2 3 -0 -2 2 6 3 1 5 -0
-1 3 0 -2 -0 1 -0 2 -1 -3 -2 -3 -0 -1 -2 -3 -1 -1 -1 -1 -4 -4 -4 -3 -7 -3 -7 -2 2 -0 -0 -1 2 -1 -2 3 2 -1 -2 -1 -0 1 0 -0 1 3 5 1 1
2 -1 -2 1 0 -0 -2 -0 2 -6 1 -1 -1 -2 -3 -4 -3 -2 0 1 1 -0 -1 0 -1 -3 -6 -3 -4 -1 1 4 -1 2 2 -1 5 4 -1 1 1 -3 1 -1 3 3 0 4 3
-2 -0 -1 -2 -1 -1 -7 6 -4 -9 2 -1 -1 -2 -5 -6 -6 -4 -6 -6 -4 1 4 2 3 2 -1 0 1 -1 -2 -4 1 -2 -1 4 -1 4 1 4 4 2 -0 3 0 -1 1 4 5
-1 1 -2 -2 -4 -4 -10 8 -2 -6 -3 -5 -4 -2 -3 -3 -2 -3 1 0 -3 2 -3 -0 -3 2 3 -2 -0 1 5 8 2 4 6 2 5 5 4 2 8 3 0 0 2 1 -1 3 6
-1 -1 -2 0 -2 -3 -3 -2 -0 -5 -3 -4 -5 -3 -2 -1 0 -3 -4 -3 -1 -5 -2 -3 -2 3 0 -1 -3 -2 -2 1 7 1 3 3 -2 3 2 3 4 8 3 4 6 4 2 3 5
0 -0 -2 -2 -3 -5 -0 -18 12 -2 -4 -3 -2 -1 0 -1 -3 -2 -3 -4 -4 -3 -3 -3 -4 -4 -3 -5 -2 -1 1 -2 -1 4 -1 3 -3 2 1 3 3 6 6 -5 2 6 5 4 8
-2 -2 -1 -1 -1 -3 -1 -14 18 -5 -4 -4 -2 -3 -4 -4 -2 -5 -2 -2 -3 -1 -3 -4 -2 -8 -8 -7 -6 -6 -5 -3 1 6 7 4 6 -1 1 -2 0 0 2 -0 2 1 3 1 3
-0 -0 -1 -2 -2 -4 -3 -7 13 -5 -2 -1 0 -1 -3 -1 -1 -2 -2 -2 -2 -1 -1 -1 -5 -1 -5 -5 -6 -3 -1 -0 7 6 7 8 10 3 3 1 0 2 3 4 5 4 -0 1 3
-2 -3 -4 -6 -4 -6 -2 -9 1 -1 1 -3 -1 -1 -2 -3 -3 -5 -3 0 1 1 -0 -4 -1 -3 -4 -4 -6 -5 -3 -1 -3 -5 -2 3 8 3 1 -1 -4 3 7 8 1 6 5 4 1
-2 -1 -2 -5 -2 -2 -4 -8 -7 -3 1 -2 -1 -1 -3 -3 -0 -1 1 -1 -2 -4 -5 -4 -3 -2 -4 -4 -3 -2 -0 -6 -3 -4 -4 -3 -0 3 -3 -1 2 0 2 6 2 5 8 4 4
-2 -3 -2 -4 -3 -6 -5 -4 -4 -1 0 -1 -2 -3 0 0 2 1 2 2 2 1 0 -0 -6 -2 -4 1 -3 -3 -2 -5 -5 -2 -1 -1 1 6 3 1 3 2 1 1 2 1 6 2 2
-2 -2 -2 -2 -4 -4 -4 -3 -2 -2 -1 -1 -0 -1 1 3 1 1 3 2 0 1 -2 -3 0 -2 -4 -2 -2 -3 -1 -3 -3 -3 -2 -1 -2 -1 -1 -1 -0 1 1 -2 -4 -0 3 5 3
-2 -1 -1 -2 -3 -4 -2 -1 -1 -2 -0 1 -1 0 0 1 1 -0 -0 2 -0 -3 -2 -6 -5 -1 1 -1 -3 -2 -0 -1 -1 -4 -4 0 -1 -0 -2 -1 -2 -2 -3 -1 -1 0 2 1 -1
-0 -1 -1 -1 -1 -2 -2 -4 -3 -1 -0 -1 -1 -1 -0 0 -4 -1 -3 -4 -1 -1 -2 -3 -1 -4 -1 -3 -2 -3 -2 -3 -2 -1 -4 -4 -4 -1 0 -0 0 1 0 -1 -1 -1 -1 0 0
Height
5831 5835 5838 5841 5847 5848 5851 5855 5857 5858 5861 5861 5862 5863 5864 5864 5867 5871 5869 5869 5870 5871 5871 5872 5872 5873 5873 5873 5873 5873 5873 5872 5873 5874 5874 5875 5876 5877 5877 5878 5879 5879 5879 5879 5879 5878 5878 5878 5877
5827 5830 5835 5838 5842 5845 5848 5851 5854 5856 5859 5860 5861 5862 5863 5863 5863 5865 5866 5867 5868 5869 5870 5870 5871 5871 5872 5872 5872 5872 5872 5871 5871 5871 5871 5872 5873 5874 5874 5875 5875 5876 5876 5877 5877 5877 5876 5876 5876
5822 5826 5831 5833 5836 5840 5844 5847 5850 5852 5855 5857 5858 5860 5860 5862 5862 5863 5864 5864 5865 5866 5867 5868 5869 5870 5870 5870 5870 5870 5870 5870 5870 5870 5870 5870 5870 5870 5871 5872 5872 5872 5873 5873 5874 5874 5874 5874 5874
5818 5822 5826 5829 5833 5836 5841 5844 5846 5849 5852 5854 5855 5857 5858 5858 5859 5860 5861 5862 5862 5863 5864 5865 5867 5866 5867 5867 5867 5867 5868 5868 5868 5868 5868 5869 5869 5869 5869 5868 5868 5869 5870 5870 5870 5870 5870 5871 5871
5812 5817 5821 5824 5828 5832 5836 5841 5844 5845 5848 5850 5851 5854 5855 5855 5856 5857 5857 5858 5858 5859 5860 5861 5863 5864 5864 5864 5865 5865 5865 5865 5865 5866 5866 5866 5866 5866 5866 5866 5866 5866 5865 5866 5866 5867 5866 5867 5867
5808 5812 5816 5820 5825 5828 5832 5837 5840 5842 5844 5845 5847 5849 5851 5851 5852 5853 5853 5854 5855 5856 5856 5857 5858 5859 5860 5861 5861 5861 5862 5862 5862 5863 5863 5863 5863 5863 5863 5863 5863 5863 5863 5862 5862 5862 5863 5863 5862
5803 5808 5813 5816 5819 5823 5828 5833 5836 5838 5839 5841 5842 5844 5846 5847 5847 5848 5849 5849 5850 5851 5851 5852 5853 5854 5855 5856 5856 5857 5858 5858 5858 5858 5859 5859 5859 5860 5860 5860 5860 5860 5859 5858 5858 5858 5858 5859 5859
5798 5803 5807 5810 5815 5820 5824 5828 5831 5833 5834 5836 5837 5838 5841 5843 5842 5842 5843 5844 5845 5846 5847 5848 5848 5850 5850 5851 5851 5851 5852 5853 5854 5854 5854 5854 5854 5855 5855 5856 5856 5856 5855 5855 5854 5853 5853 5853 5854
5792 5797 5802 5807 5811 5816 5818 5823 5825 5826 5829 5830 5832 5833 5834 5835 5835 5836 5837 5839 5840 5841 5841 5842 5843 5843 5845 5845 5846 5846 5846 5847 5847 5848 5848 5849 5849 5849 5850 5850 5851 5851 5851 5850 5850 5849 5848 5848 5848
5787 5793 5798 5802 5805 5809 5812 5815 5818 5822 5824 5826 5827 5827 5828 5829 5830 5830 5832 5833 5833 5834 5836 5837 5837 5838 5838 5839 5839 5840 5841 5841 5841 5842 5842 5842 5842 5842 5843 5844 5844 5844 5844 5845 5844 5844 5843 5843 5843
5784 5789 5793 5796 5799 5803 5806 5808 5813 5816 5818 5820 5822 5823 5823 5823 5824 5824 5825 5827 5828 5828 5829 5831 5831 5832 5832 5832 5833 5833 5834 5834 5835 5835 5835 5835 5835 5836 5836 5836 5836 5837 5837 5837 5838 5837 5837 5837 5837
5780 5785 5789 5792 5795 5798 5801 5804 5808 5810 5814 5816 5817 5819 5819 5820 5820 5820 5821 5822 5824 5824 5825 5825 5826 5826 5826 5827 5827 5826 5826 5827 5827 5827 5827 5828 5828 5828 5829 5829 5828 5830 5830 5830 5830 5830 5830 5830 5830
5777 5781 5785 5788 5791 5795 5798 5801 5803 5806 5810 5812 5814 5815 5817 5818 5819 5819 5820 5821 5821 5821 5821 5820 5820 5820 5820 5821 5821 5821 5820 5820 5819 5820 5819 5820 5820 5819 5819 5820 5820 5821 5821 5822 5822 5822 5822 5822 5822
5774 5778 5782 5786 5789 5793 5796 5798 5799 5803 5805 5808 5809 5811 5813 5815 5817 5816 5816 5815 5815 5814 5813 5813 5813 5812 5812 5813 5813 5814 5814 5814 5813 5812 5812 5811 5812 5812 5811 5811 5811 5811 5812 5812 5813 5813 5813 5813 5814
5772 5775 5779 5783 5786 5789 5792 5795 5796 5799 5801 5803 5805 5807 5808 5809 5809 5809 5809 5809 5809 5808 5808 5807 5807 5807 5806 5805 5804 5804 5805 5805 5805 5804 5803 5801 5801 5802 5802 5802 5802 5802 5803 5802 5803 5805 5804 5804 5804
5769 5773 5776 5779 5783 5786 5789 5792 5793 5794 5796 5798 5800 5801 5801 5802 5802 5803 5803 5802 5803 5802 5801 5800 5799 5798 5797 5796 5795 5794 5793 5793 5793 5793 5793 5792 5791 5790 5790 5791 5793 5793 5793 5793 5793 5793 5794 5794 5794
5765 5770 5772 5776 5779 5782 5785 5788 5789 5790 5792 5793 5794 5794 5794 5795 5794 5794 5795 5794 5793 5792 5791 5790 5789 5787 5786 5785 5785 5783 5782 5780 5779 5779 5779 5778 5778 5777 5777 5778 5780 5781 5783 5783 5782 5782 5783 5784 5785
5763 5767 5769 5772 5776 5777 5779 5782 5784 5785 5787 5788 5788 5788 5788 5787 5787 5787 5787 5787 5786 5784 5783 5781 5779 5776 5774 5772 5770 5768 5768 5767 5765 5763 5763 5762 5762 5762 5763 5765 5767 5767 5768 5771 5772 5772 5773 5773 5774
5759 5762 5765 5768 5771 5773 5774 5778 5778 5778 5780 5780 5781 5780 5780 5779 5778 5777 5777 5775 5774 5772 5771 5770 5768 5764 5761 5759 5757 5755 5753 5750 5749 5747 5745 5745 5745 5745 5746 5749 5751 5752 5754 5757 5759 5759 5761 5763 5763
5756 5759 5761 5764 5765 5768 5769 5771 5772 5772 5772 5772 5772 5772 5772 5771 5770 5767 5765 5764 5762 5761 5758 5756 5754 5751 5748 5744 5741 5738 5734 5733 5730 5727 5725 5724 5724 5724 5726 5729 5733 5734 5737 5741 5744 5746 5748 5750 5752
5752 5754 5756 5759 5760 5762 5763 5764 5765 5765 5765 5764 5763 5762 5761 5760 5759 5757 5756 5754 5752 5749 5746 5743 5741 5738 5734 5729 5725 5721 5717 5714 5711 5707 5705 5704 5704 5705 5707 5710 5714 5717 5719 5724 5728 5731 5733 5736 5739
5748 5750 5752 5754 5755 5755 5756 5756 5758 5758 5757 5756 5756 5755 5753 5752 5750 5748 5747 5744 5741 5738 5735 5732 5730 5727 5723 5716 5711 5706 5701 5696 5691 5687 5684 5682 5680 5684 5686 5691 5696 5701 5704 5709 5714 5716 5719 5722 5725
5744 5746 5747 5749 5749 5750 5750 5749 5753 5753 5752 5751 5750 5748 5746 5743 5741 5738 5736 5734 5732 5729 5726 5724 5722 5718 5713 5706 5700 5693 5686 5679 5672 5666 5663 5661 5659 5662 5666 5670 5675 5682 5687 5693 5698 5703 5705 5709 5713
5741 5742 5744 5745 5745 5746 5746 5744 5748 5746 5746 5744 5742 5740 5738 5735 5732 5730 5728 5726 5724 5721 5719 5717 5715 5709 5703 5697 5689 5681 5671 5660 5650 5643 5639 5638 5639 5642 5647 5651 5657 5664 5670 5675 5680 5685 5690 5695 5698
5738 5740 5741 5742 5742 5741 5740 5738 5742 5738 5737 5737 5734 5733 5731 5729 5727 5724 5722 5719 5716 5714 5712 5710 5706 5700 5694 5687 5680 5671 5659 5643 5633 5626 5620 5614 5616 5623 5629 5635 5641 5647 5653 5658 5663 5668 5674 5679 5683
5735 5737 5737 5736 5737 5737 5734 5732 5733 5732 5731 5730 5729 5728 5726 5724 5721 5719 5716 5713 5709 5707 5705 5702 5698 5693 5687 5681 5671 5663 5650 5637 5627 5621 5612 5606 5608 5613 5618 5623 5627 5632 5637 5642 5648 5653 5658 5664 5669
5733 5734 5735 5733 5732 5731 5729 5727 5727 5726 5727 5727 5725 5724 5722 5719 5717 5715 5712 5709 5706 5703 5699 5694 5691 5686 5680 5674 5666 5657 5646 5634 5623 5617 5610 5606 5605 5607 5610 5613 5616 5620 5625 5631 5636 5640 5643 5647 5654
5730 5731 5731 5729 5728 5727 5726 5725 5725 5725 5725 5725 5723 5722 5720 5718 5715 5712 5709 5705 5702 5697 5692 5687 5683 5680 5675 5669 5661 5654 5644 5634 5624 5615 5609 5606 5604 5604 5606 5607 5610 5614 5618 5621 5626 5628 5632 5636 5641
5727 5726 5727 5727 5726 5725 5725 5725 5724 5724 5724 5723 5722 5720 5717 5715 5712 5708 5704 5700 5697 5693 5687 5683 5677 5674 5670 5664 5657 5651 5643 5634 5625 5618 5611 5606 5603 5603 5604 5606 5609 5611 5612 5615 5616 5619 5623 5627 5632
5725 5725 5725 5725 5726 5724 5724 5725 5723 5724 5723 5721 5718 5715 5712 5709 5705 5702 5699 5695 5691 5688 5683 5678 5672 5668 5663 5660 5654 5649 5642 5634 5627 5620 5613 5608 5605 5602 5601 5603 5604 5606 5608 5609 5611 5612 5614 5618 5623